User: anonymous   Login
Location: Unspecified
(0.0000°N, 0.0000°E)
Time: 02:15:53
(UTC+00:00)
Language:

GONETS M 10 (M20) - Orbit

View from above orbital plane
View from above orbital plane
View from above satellite
View from above satellite

Ground track
Ground track

The orbit data is extracted from the following two-line orbital elements,

1 40063U 14036C   23088.52310046  .00000061  00000-0  36609-3 0  9993
2 40063  82.5125 317.8428 0020939 185.7388 174.3451 12.42893961396406
Epoch (UTC): 29 March 2023 12:33:15
Eccentricity: 0.0020939
inclination: 82.5125°
perigee height: 1478 km
apogee height: 1511 km
right ascension of ascending node: 317.8428°
argument of perigee: 185.7388°
revolutions per day: 12.42893961
mean anomaly at epoch: 174.3451°
orbit number at epoch: 39640

The dashed part of the orbit path shows where the satellite is in the earth's shadow,  

DLR